Regional Weather Roundup
Issued by NWS

Home | Current Version | Previous Version | Text Only | Print | Product List | Glossary On
Versions: 1 2 3 4 5 6 7 8 9 10 11 12 13 14 15 16 17 18 19 20 21 22 23 24 25 26 27 28 29 30 31 32 33 34 35 36 37 38 39 40 41 42 43 44 45 46 47 48 49 50
000
ASUS45 KABQ 032310
RWRNM
WEATHER ROUNDUP FOR NEW MEXICO
NATIONAL WEATHER SERVICE ALBUQUERQUE NM
400 PM MST TUE MAR 03 2015

NOTE: "FAIR" MEANS FEW OR NO CLOUDS BELOW 12,000 FEET AGL WITH NO
       SIGNIFICANT WEATHER OR OBSTRUCTIONS TO VISION.

      THIS PRODUCT IS RELEASED AS TWO VERSIONS.  ONE VERSION NEAR
      THE TOP OF THE HOUR CONTAINING PRELIMINARY DATA FROM ALBUQUERQUE
      AND OTHER STATIONS.  A FINAL VERSION WITH ADDITIONAL DATA IS
      ISSUED ABOUT 10 MINUTES AFTER THE HOUR.

NMZ501-503-504-510>518-040000-
NORTHWEST PLATEAU/NORTHCENTRAL MOUNTAINS

CITY           SKY/WX    TMP DP  RH WIND       PRES   REMARKS
FARMINGTON     MOSUNNY   43  29  57 W12       29.79S
LOS ALAMOS     PTSUNNY   43  18  36 S8        29.79S
SANTA FE       SUNNY     48  21  34 W7        29.77F
TAOS           MOSUNNY   39  21  48 W14G20    29.78S WCI  31
ANGEL FIRE     FAIR      34  20  57 W20G28    29.76R WCI  23

$$
NMZ402-403-502-505>509-040000-
WESTCENTRAL MOUNTAINS/SOUTHWEST MOUNTAINS

CITY           SKY/WX    TMP DP  RH WIND       PRES   REMARKS
GALLUP         PTSUNNY   43  23  45 SW20G30   29.82S
GRANTS         SUNNY     47  13  26 SW14G25   29.83R
SILVER CITY    SUNNY     55  27  33 W15G22    29.85S

$$
NMZ407-409-411-412-040000-
SOUTHERN DESERTS

CITY           SKY/WX    TMP DP  RH WIND       PRES   REMARKS
LORDSBURG      FAIR      61  32  33 W13       29.81F
DEMING         MOSUNNY   59  38  45 SW23G31   29.81F
LAS CRUCES     MOSUNNY   58  41  52 SW15G22   29.84F
HOLLOMAN AFB   PTSUNNY   57  41  55 W16       29.82F
ALAMOGORDO     CLOUDY    57  39  51 W13G21    29.85F
T OR C         SUNNY     62  10  13 SW21G36   29.76F

$$
NMZ519>523-040000-
CENTRAL VALLEYS/CENTRAL HIGHLANDS

CITY           SKY/WX    TMP DP  RH WIND       PRES   REMARKS
ALBUQUERQUE    MOSUNNY   54  29  38 VRB6      29.76F
DOUBLE EAGLE   MOSUNNY   54  21  28 S9        29.77F
MORIARTY ARPT  FAIR      50  28  43 W13G23    29.78F
CLINES CORNERS MOSUNNY   48  27  44 W23G37    29.75S
BELEN          FAIR      62  24  23 W15G25    29.72F
SOCORRO          N/A     65   8  10 SW25G36   29.73S

$$
NMZ524>526-539-540-040000-
SOUTHCENTRAL MOUNTAINS

CITY           SKY/WX    TMP DP  RH WIND       PRES   REMARKS
RUIDOSO        PTSUNNY   46  30  53 SW29G37   29.85R

$$
NMZ527>531-040000-
NORTHEAST HIGHLANDS/NORTHEAST PLAINS

CITY           SKY/WX    TMP DP  RH WIND       PRES   REMARKS
LAS VEGAS      SUNNY     46  22  38 SW23G29   29.76S
RATON          SUNNY     52  14  22 SW26G33   29.68R
CLAYTON        CLOUDY    38  33  82 NE15      29.77R WCI  29

$$
NMZ532>537-040000-
EASTCENTRAL PLAINS

CITY           SKY/WX    TMP DP  RH WIND       PRES   REMARKS
TUCUMCARI      PTSUNNY   60  41  49 S18G26    29.72F
CANNON AFB     CLOUDY    57  43  59 SW14      29.78F
CLOVIS AIRPORT CLOUDY    57  43  58 SW14      29.78F

$$
NMZ028-029-538-040000-
SOUTHEAST PLAINS

CITY           SKY/WX    TMP DP  RH WIND       PRES   REMARKS
ROSWELL        MOSUNNY   58  45  62 S10       29.78F
ARTESIA        PTSUNNY   55  48  76 S12       29.81S
CARLSBAD       PTSUNNY   62  42  47 VRB5      29.79F
HOBBS          MOSUNNY   63  43  48 N6        29.82S


$$


USA.gov is the U.S. government's official web portal to all federal, state and local government web resources and services.